Location: Alpha Ridge Park
(39.3209°N, 76.9128°W)
Time: 22:43:16
(UTC-04:00)

S-56A Canister/Altair - Pass Details

Date: 23 May 2019
Orbit: 633 x 2499 km, 38.9° (Epoch: 16 June)

Event Time Altitude Azimuth Distance (km) Brightness Sun altitude
Rises 06:13:44 0° 280° (W) 4,188 10.8 3.7°
Reaches altitude 10° 06:16:11 10° 279° (W) 3,430 10.4 4.1°
Maximum altitude 06:25:15 78° 195° (SSW) 1,851 9.5 5.7°
Drops below altitude 10° 06:38:43 10° 112° (ESE) 4,910 12.5 8.1°
Sets 06:42:56 0° 111° (ESE) 6,057 13.0 8.9°
